Regional Weather Roundup
Issued by NWS

Home | Current Version | Previous Version | Graphics & Text | Print | Product List | Glossary On
Versions: 1 2 3 4 5 6 7 8 9 10 11 12 13 14 15 16 17 18 19 20 21 22 23 24 25 26 27 28 29 30 31 32 33 34 35 36 37 38 39 40 41 42 43 44 45 46 47 48 49 50
000
ASUS43 KDTX 160310
RWRMI
MICHIGAN HOURLY REGIONAL WEATHER ROUNDUP
NATIONAL WEATHER SERVICE DETROIT/PONTIAC MI
ISSUED BY NATIONAL WEATHER SERVICE GRAND RAPIDS MI
1000 PM EST THU NOV 15 2018

NOTE: "FAIR" INDICATES FEW OR NO CLOUDS BELOW 12,000 FEET WITH NO
SIGNIFICANT WEATHER AND/OR OBSTRUCTION TO VISIBILITY.

MIZ047>049-052>055-059>063-066>070-074>076-081>083-160400-
SOUTHEAST LOWER MICHIGAN

CITY           SKY/WX    TMP DP  RH WIND       PRES   REMARKS
ADRIAN         CLOUDY    32  30  92 W7        29.90S WCI  26
ALMA           LGT SNOW  31  30  96 CALM      29.86F
ANN ARBOR      CLOUDY    32  32 100 S7        29.87F FOG     WCI  26
BAD AXE        LGT SNOW  33  32  97 SE3       29.84F
DETROIT CITY   LGT SNOW  34  32  92 SW5       29.87F FOG     WCI  30
DETROIT        CLOUDY    34  30  85 SW9       29.88F FOG     WCI  27
FLINT          CLOUDY    32  31  96 CALM      29.86S FOG
GROSSE ILE     CLOUDY    34  33  96 W5        29.87F WCI  30
HILLSDALE      CLOUDY    32  30  93 W7        29.87R WCI  26
HOWELL         CLOUDY    33  32  97 SW3       29.85F FOG

CITY           SKY/WX    TMP DP  RH WIND       PRES   REMARKS
JACKSON        CLOUDY    32  31  96 SW9       29.87S WCI  24
LANSING        LGT SNOW  32  32 100 SW8       29.87S FOG     WCI  25
MASON          CLOUDY    34  32  93 SW3       29.86F
MONROE         CLOUDY    33  32  97 W8        29.88F FOG     WCI  26
MT. CLEMENS    LGT RAIN  34  34 100 S5        29.85F WCI  30
PONTIAC        CLOUDY    33  32  96 S5        29.84F VSB 1   WCI  29
PORT HOPE        N/A     34  33  96 S5        29.84F WCI  30
TRI CITIES     LGT SNOW  32  31  96 CALM      29.86F VSB 1
YPSILANTI      CLOUDY    35  31  85 SW10      29.88F FOG     WCI  27
$$
MIZ043>046-050>051-056>058-064>065-071>073-077>080-160400-
SOUTHWEST LOWER MICHIGAN

CITY           SKY/WX    TMP DP  RH WIND       PRES   REMARKS
BATTLE CREEK   CLOUDY    32  29  88 SW8       29.88S WCI  25
BENTON HARBOR  CLOUDY    33  29  85 S9        29.89S WCI  25
BIG RAPIDS     CLOUDY    30  30  99 CALM      29.83F FOG
COLDWATER      CLOUDY    32  31  93 SW7       29.88F WCI  26
HOLLAND        CLOUDY    32  30  92 S8        29.87S FOG     WCI  25
GRAND RAPIDS   LGT SNOW  35  30  82 S5        29.85F WCI  31
KALAMAZOO      CLOUDY    32  29  88 SW8       29.88F WCI  25
MARSHALL       CLOUDY    33  32  93 SW5       29.87F WCI  29
MOUNT PLEASANT LGT SNOW  32  30  94 CALM      29.84F
MUSKEGON       CLOUDY    32  29  88 SE5       29.86F FOG     WCI  27
STURGIS        CLOUDY    32  28  86 SW6       29.88F WCI  26
$$
MIZ016>042-160400-
NORTHERN LOWER MICHIGAN

CITY           SKY/WX    TMP DP  RH WIND       PRES   REMARKS
ALPENA         LGT SNOW  32  32 100 S5        29.86F FOG     WCI  27
BEAVER ISLAND  CLOUDY    35  28  74 S5        29.82F WCI  31
BELLAIRE       CLOUDY    33  28  82 S3        29.84F
CADILLAC       CLOUDY    30  27  90 S6        29.80F WCI  24
CHARLEVOIX     CLOUDY    33  28  79 S3        29.86S
GAYLORD        CLOUDY    29  29 100 S6        29.80F WCI  23
HOUGHTON LAKE  CLOUDY    30  28  92 SE3       29.83F FOG
MANISTEE       CLOUDY    31  28  89 VRB5      29.84F WCI  26
OSCODA         LGT SNOW  32  32 100 CALM      29.85F
PELLSTON       CLOUDY    33  27  78 S3        29.83F
TRAVERSE CITY  CLOUDY    34  28  79 CALM      29.82F
LUDINGTON      CLOUDY    32  29  87 SE3       29.84F
$$
MIZ007>008-015-160400-
EASTERN UPPER MICHIGAN

CITY           SKY/WX    TMP DP  RH WIND       PRES   REMARKS
KINROSS        FAIR      31  28  89 S7        29.84F WCI  24
MACKINAC ISLAN CLOUDY    33  24  70 S7        29.83F WCI  27
NEWBERRY       CLOUDY    32  31  95 S5        29.80F WCI  27
S. S. MARIE    CLOUDY    34  31  88 CALM      29.83F
$$
MIZ004>006-011>014-085-160400-
CENTRAL UPPER MICHIGAN

CITY           SKY/WX    TMP DP  RH WIND       PRES   REMARKS
MANISTIQUE     MOCLDY    36  24  63 S9        29.80F WCI  29
ESCANABA       CLOUDY    37  31  78 SW8       29.79F WCI  31
MENOMINEE      LGT RAIN  35  29  78 SW8       29.79F WCI  29
SAWYER-GWINN   FLURRIES  32  28  86 S10       29.74F WCI  24
$$
MIZ001>003-009>011-084-160400-
WESTERN UPPER MICHIGAN

CITY           SKY/WX    TMP DP  RH WIND       PRES   REMARKS
IRON MOUNTAIN  CLOUDY    32  24  72 SE6       29.73F WCI  26
HOUGHTON       CLOUDY    35  20  54 SW5       29.69F WCI  31
COPPER HARBOR    N/A     32  29  88 SW7       29.72F WCI  26
IRONWOOD       CLOUDY    32  18  56 SW5       29.70F WCI  27
$$

ABBREVIATIONS USED IN REMARKS
   TC - TEMPERATURE IN CELSIUS
  WCI - WIND CHILL INDEX
   HX - HEAT INDEX
  VSB - VISIBILITY




USA.gov is the U.S. government's official web portal to all federal, state and local government web resources and services.